Location: Jangalapalle
(16.8036°N, 80.6370°E)
Time: 10:52:57
(UTC+00:00)

Meteor 1-24 Rocket - Pass Details

Date: 05 August 2024
Orbit: 790 x 926 km, 81.3° (Epoch: 08 September)

Event Time Altitude Azimuth Distance (km) Brightness Sun altitude
Rises 22:46:08 0° 352° (N) 3,515 7.2 -21.5°
Reaches altitude 10° 22:48:35 10° 352° (N) 2,588 6.4 -21.0°
Maximum altitude 22:54:31 83° 265° (W) 930 3.8 -19.7°
Drops below altitude 10° 23:00:32 10° 178° (S) 2,618 6.0 -18.4°
Sets 23:03:00 0° 177° (S) 3,558 6.7 -17.8°
